Regional Weather Roundup
Issued by NWS

Home | Current Version | Previous Version | Graphics & Text | Print | Product List | Glossary On
Versions: 1 2 3 4 5 6 7 8 9 10 11 12 13 14 15 16 17 18 19 20 21 22 23 24 25 26 27 28 29 30 31 32 33 34 35 36 37 38 39 40 41 42 43 44 45 46 47 48 49 50
000
ASUS43 KIND 241309
RWRIN

WEATHER ROUNDUP FOR INDIANA
NATIONAL WEATHER SERVICE INDIANAPOLIS IN
900 AM EDT WED AUG 24 2016

NOTE: "FAIR" INDICATES FEW OR NO CLOUDS BELOW 12,000 FEET WITH NO
SIGNIFICANT WEATHER AND/OR OBSTRUCTIONS TO VISIBILITY.

* - STATION DOES NOT REPORT WEATHER SUCH AS PRECIPITATION OR FOG.

+ - STATION NOT QUALITY CONTROLLED BY THE NATIONAL WEATHER SERVICE.
    USE DATA WITH CAUTION...ESPECIALLY DEWPOINT AND RELATIVE
    HUMIDITY OBSERVATIONS.

INZ001>003-010>013-019-020-241400-
NORTHWEST INDIANA

CITY           SKY/WX    TMP DP  RH WIND       PRES   REMARKS
GARY /AIRPORT/ CLOUDY    73  68  83 S12       30.02F
KNOX *+        CLOUDY    72  46  40 S12       30.05F
LA PORTE +     CLOUDY    73  71  95 S7        30.07R
MICHIGAN CITY+ CLOUDY    72  66  83 MISG      30.05R
MONTICELLO +   CLOUDY    72  63  73 S9        30.07S
RENSSELAER +   PTSUNNY   72  68  88 S7        30.06S
VALPARAISO     CLOUDY    71  65  81 S8        30.06S

$$

LMZ046-743>745-241400-
SOUTHERN LAKE MICHIGAN

STATION/POSITION TIME  TEMP    WIND        PRES    WAVE
                       AIR SEA DIR/SP/G            HT
                 (UTC) (F)     (DEG/KT/KT) (MB)    (FT)
BURNS HARBOR     1204   72     180/  9/ 20 1016.9F
MICHIGAN CITY    1200   71     150/ 11/ 13   N/A
5NW MICH CITY    1210   72 73  180/ 16/ 19   N/A     2

$$

INZ004-005-014>016-021>024-241400-
NORTH CENTRAL INDIANA

CITY           SKY/WX    TMP DP  RH WIND       PRES   REMARKS
ELKHART        MOSUNNY   72  64  78 S14       30.07F
GOSHEN         MOSUNNY   72  63  73 S13       30.08F
LOGANSPORT +   CLOUDY    70  64  83 S9        30.10S
PERU/GRISSOM   CLOUDY    73  66  79 S13       30.09F
ROCHESTER +    CLOUDY    73  68  83 S12       30.09S
SOUTH BEND     PTSUNNY   72  65  78 S12       30.06F
WARSAW +       CLOUDY    70  64  83 S8        30.09F

$$

INZ006>009-017-018-025>027-241400-
NORTHEAST INDIANA

CITY           SKY/WX    TMP DP  RH WIND       PRES   REMARKS
ANGOLA *+      PTSUNNY   66  59  77 S7        30.11F
AUBURN +       CLOUDY    68  61  77 CALM      30.13S
FORT WAYNE     CLOUDY    71  63  75 S13       30.13F
HUNTINGTON +   CLOUDY   N/A N/A N/A S7        30.12S

$$

INZ028-029-035-036-043>045-051>053-241400-
WEST CENTRAL INDIANA

CITY           SKY/WX    TMP DP  RH WIND       PRES   REMARKS
CRAWFORDSVL +  CLOUDY    71  70  99 S5        30.11S
GREENCASTLE +  CLOUDY    70  70 100 S5        30.13S
LAFAYETTE      MOSUNNY   72  68  87 S7        30.08S
TERRE HAUTE    MOSUNNY   74  69  85 S13       30.10F

$$

INZ030>032-037>040-046>048-054>057-064-065-241400-
CENTRAL INDIANA

CITY           SKY/WX    TMP DP  RH WIND       PRES   REMARKS
ANDERSON       SUNNY     72  64  78 S12       30.15
COLUMBUS       PTSUNNY   68  68 100 S8        30.17S
INDIANAPOLIS   CLOUDY    72  65  78 S10       30.13S
-EAGLE CREEK   CLOUDY    72  65  78 SE6       30.13F
KOKOMO *+      CLOUDY    72  63  73 S10       30.11F
MARION +       CLOUDY    70  64  81 S9        30.14S
MT COMFORT *+  CLOUDY    68  64  88 S7        30.15F
SHELBYVILLE    MOSUNNY   72  64  76 S9        30.15F
ZIONSVILLE +   CLOUDY    70  66  85 S8        30.14S

$$

INZ033-034-041-042-049-050-058-059-241400-
EAST CENTRAL INDIANA

CITY           SKY/WX    TMP DP  RH WIND       PRES   REMARKS
MUNCIE         CLOUDY    73  64  73 S7        30.14F

$$

INZ060-061-067>069-081>083-085>088-241400-
SOUTHWEST INDIANA

CITY           SKY/WX    TMP DP  RH WIND       PRES   REMARKS
EVANSVILLE     PTSUNNY   77  71  82 SW10      30.15S
HUNTINGBURG *+ MOSUNNY   73  68  83 S6        30.16S
WASHINGTON +   MOSUNNY   73  72  95 MISG      30.14S

$$

INZ062-063-066-070>080-084-089>092-241400-
SOUTH CENTRAL AND SOUTHEAST INDIANA

CITY           SKY/WX    TMP DP  RH WIND       PRES   REMARKS
BLOOMINGTON    PTSUNNY   72  66  81 S6        30.14F
MADISON *+     CLOUDY    70  64  83 S6        30.22R

$$





USA.gov is the U.S. government's official web portal to all federal, state and local government web resources and services.